Theta_e
315 313 312 312 311 310 310 310 310 311 312 314 316 318 319 321 324 327 330 334 335 339 341 340 338 337 340 342 341 335 332 330 324 317 318 317 317 314 313 312 310 308 309
312 310 309 309 309 308 308 309 309 310 311 312 314 316 318 320 322 326 329 333 334 337 338 338 337 336 339 338 332 329 324 324 324 317 315 314 312 312 312 308 308 310 310
310 308 307 307 307 307 308 309 310 310 311 312 314 315 316 318 320 324 328 332 334 336 338 336 335 336 332 329 325 321 318 317 318 315 314 313 311 310 309 308 309 309 310
307 306 305 305 305 306 307 307 308 310 311 312 312 313 315 318 320 323 327 331 332 334 336 335 331 328 326 325 321 317 313 313 312 313 310 309 307 308 308 310 309 310 311
304 304 303 304 304 305 306 308 309 310 312 315 313 313 316 319 321 325 327 331 329 326 322 320 320 321 320 316 313 311 310 307 307 307 306 307 310 310 310 310 310 310 309
303 302 302 302 304 305 306 306 307 308 312 319 317 317 320 322 325 326 328 323 316 314 311 309 309 309 308 307 306 306 307 305 307 309 310 310 311 310 309 308 309 308 307
301 301 301 302 302 303 304 304 304 305 308 311 315 318 316 320 324 319 317 312 309 307 305 304 303 304 305 304 304 304 303 305 309 308 309 309 308 307 307 308 309 308 309
300 300 300 300 301 301 301 301 301 302 303 305 306 306 306 306 307 308 308 305 303 303 302 301 301 301 302 302 302 301 301 303 306 308 307 306 306 305 306 306 307 308 308
298 298 299 299 300 300 300 300 300 300 301 301 301 302 302 303 303 303 304 302 301 301 301 301 301 300 300 301 300 301 302 302 304 306 307 307 306 306 307 308 307 306 306
295 296 298 299 299 299 299 299 299 300 299 299 299 299 299 299 300 300 300 300 299 299 299 300 301 302 303 303 303 306 306 305 305 307 308 307 307 306 307 307 306 306 306
295 296 297 298 299 298 298 299 299 299 299 298 298 297 297 297 298 298 298 298 298 298 299 301 302 303 305 305 306 307 307 307 307 308 311 310 309 308 308 308 307 306 306
295 296 296 297 297 297 297 298 299 298 298 298 297 297 297 297 298 298 298 298 298 298 299 299 300 301 302 303 304 305 305 306 308 310 309 309 308 308 308 309 308 308 307
295 296 295 295 295 296 296 297 297 298 297 297 297 296 296 297 296 298 298 299 299 299 299 299 301 303 304 305 305 306 307 309 309 309 309 308 308 309 309 307 307 305 306
295 294 293 293 292 293 293 293 294 295 295 295 295 296 296 296 296 297 297 298 298 296 299 301 302 303 305 306 306 307 307 307 308 308 308 308 308 307 307 306 305 302 303
295 294 293 293 292 292 292 293 293 293 294 295 295 296 296 296 298 298 299 299 299 299 299 299 301 302 304 306 306 306 306 307 308 306 306 307 306 306 306 305 303 301 300
296 295 295 294 293 292 292 292 294 294 295 295 295 295 296 296 296 296 296 297 299 299 300 300 300 300 301 303 304 305 306 306 306 306 305 305 305 305 305 304 303 301 300
297 297 296 295 295 294 293 292 292 292 293 294 294 295 295 295 296 297 298 299 300 300 300 300 299 300 300 301 303 304 304 304 304 304 303 303 303 304 304 303 303 299 298
298 297 296 295 294 294 294 294 294 294 294 294 294 294 295 296 297 298 299 299 299 299 299 299 299 299 299 300 303 303 303 302 302 302 303 303 303 303 303 301 299 297 296
298 298 297 296 295 295 294 294 294 295 296 296 296 297 298 298 298 298 298 298 298 298 298 298 297 297 297 298 301 303 302 301 301 302 302 303 303 302 300 298 297 296 295
298 298 298 298 298 297 296 296 297 297 297 297 297 298 298 298 298 298 298 298 297 297 297 297 296 295 296 297 299 301 302 301 301 301 302 302 301 299 297 296 296 296 295
300 299 299 298 297 296 296 296 296 296 296 297 297 297 297 298 297 297 297 296 296 296 296 295 294 294 296 296 296 297 299 300 299 302 300 300 297 296 295 294 294 295 295
299 300 298 297 296 295 295 295 296 296 297 297 297 297 297 297 297 297 296 296 295 294 293 293 293 294 295 295 295 295 296 297 299 300 298 297 296 296 295 294 294 294 295
299 298 296 296 296 295 296 296 297 297 297 297 297 297 297 297 297 296 295 295 295 294 292 291 293 294 294 294 294 294 294 296 296 298 298 298 296 295 293 293 293 294 295
299 299 299 298 298 297 297 297 297 297 297 297 297 297 297 297 296 296 295 295 294 293 292 291 292 293 293 293 293 295 297 299 299 298 298 296 295 293 293 293 294 295 295
299 298 297 296 296 297 297 297 296 296 296 296 297 297 296 296 296 296 295 293 292 291 289 289 291 293 293 293 295 296 297 297 297 297 296 295 294 292 292 294 294 294 294
299 298 298 297 297 297 296 296 296 296 296 296 297 296 296 296 296 295 294 293 292 290 289 288 291 292 293 295 296 297 296 297 297 296 296 295 293 293 293 293 293 293 293
Wind_Speed
27 28 30 30 31 31 32 33 33 34 34 33 33 32 31 33 30 29 29 27 25 26 29 33 33 30 25 17 13 7 9 9 5 5 9 17 14 10 9 8 11 11 10
27 30 30 32 33 34 33 32 33 33 33 33 32 32 31 30 30 29 28 26 25 26 28 32 33 27 21 13 13 10 9 12 9 7 12 11 12 15 11 5 6 5 10
30 29 31 32 32 33 31 32 31 32 33 33 32 31 31 31 31 32 30 27 26 26 26 27 29 20 17 15 12 9 9 8 9 12 10 13 11 10 4 4 4 9 13
31 30 32 32 32 33 32 34 34 34 35 35 34 31 31 30 30 31 28 26 25 20 15 7 16 19 20 16 12 10 10 9 7 11 12 7 3 2 3 5 8 8 8
30 29 31 31 32 33 32 32 29 30 32 36 30 28 28 28 29 27 25 22 11 21 26 24 22 21 21 19 18 16 17 20 20 16 11 4 5 2 4 7 9 11 10
27 29 30 31 30 29 27 25 22 20 18 13 16 21 21 24 25 23 16 27 27 30 34 29 27 27 25 25 24 22 19 19 13 1 9 6 7 7 9 9 8 9 3
28 28 29 27 27 25 21 17 16 16 16 18 14 9 9 8 13 28 33 32 31 29 29 31 31 29 27 24 21 20 18 17 15 9 7 5 5 3 3 5 4 6 8
26 27 28 25 23 19 17 19 19 19 20 23 28 29 34 31 34 41 41 39 37 34 34 33 33 28 23 22 21 21 14 10 9 5 7 9 9 6 3 3 11 14 15
25 25 26 22 20 17 19 21 20 21 26 28 30 33 33 33 34 35 44 39 38 35 33 33 31 28 23 20 21 16 10 7 10 9 9 9 7 12 13 14 14 11 7
24 23 23 21 19 19 20 23 21 23 31 30 35 37 36 38 36 36 36 36 37 34 34 30 24 19 15 8 3 6 7 5 6 5 5 5 4 6 10 9 7 8 10
22 20 22 20 20 20 21 23 23 24 30 31 36 37 38 38 40 40 37 35 32 30 27 24 19 14 14 11 9 7 3 2 5 10 6 2 7 7 7 5 7 6 6
18 19 21 22 22 23 24 24 21 23 27 29 31 34 36 38 41 41 41 39 36 34 26 19 21 18 20 20 15 7 3 4 5 8 12 9 9 7 5 4 5 10 6
18 20 21 24 27 25 24 24 23 23 23 25 26 28 30 31 37 40 41 37 33 31 27 21 19 22 23 18 17 16 16 13 13 11 10 9 9 9 12 16 16 15 9
21 23 24 28 27 26 30 27 26 25 25 26 25 24 23 23 27 25 24 24 19 11 18 14 13 12 13 14 17 14 13 15 14 13 16 15 17 19 18 16 16 20 12
21 21 22 22 25 31 35 29 32 30 24 25 21 21 23 21 18 16 14 10 7 4 2 3 12 18 18 15 17 17 18 17 17 18 18 17 16 17 15 15 13 16 12
19 20 22 22 24 26 27 31 35 33 34 31 28 27 29 25 18 16 12 11 12 15 20 20 19 19 18 18 17 17 18 18 18 19 19 14 14 13 14 14 13 13 11
23 23 25 25 24 24 24 24 24 28 32 32 29 26 22 18 18 25 31 28 23 23 22 20 20 19 18 19 17 16 19 22 22 19 18 16 14 15 15 13 11 13 13
25 27 26 23 22 22 20 19 16 15 13 12 14 15 16 17 18 20 22 23 23 24 23 22 20 20 20 18 17 18 19 20 20 18 16 16 17 16 15 15 12 15 14
20 19 20 19 17 16 14 13 11 12 12 13 16 20 24 29 30 28 25 23 22 22 22 22 22 22 23 22 20 18 19 20 18 18 19 20 17 15 14 15 14 17 16
16 15 14 13 10 9 9 8 11 19 21 22 21 19 22 22 24 25 26 24 24 24 22 22 23 23 23 23 22 20 19 19 20 21 19 17 17 17 15 16 16 14 14
5 5 12 18 19 20 19 19 19 19 20 20 23 26 23 23 23 24 25 27 27 26 24 24 23 23 24 23 22 20 19 19 23 19 18 18 17 17 18 17 17 14 15
10 10 15 15 14 15 15 15 15 15 15 19 21 25 24 25 25 24 24 25 26 27 26 24 24 24 24 23 22 21 19 18 21 20 17 17 19 18 18 18 17 15 14
11 17 16 13 13 12 10 9 15 19 20 21 21 22 24 23 22 24 24 25 24 24 25 27 27 25 24 25 22 21 23 20 20 18 20 18 20 21 20 18 16 16 15
6 15 12 12 15 18 18 18 20 20 20 21 21 21 21 20 22 24 23 23 24 26 26 26 25 25 25 24 25 24 27 25 20 20 20 18 22 22 19 17 18 18 17
14 14 15 16 14 12 16 18 18 19 20 19 19 20 20 20 21 22 22 24 25 25 26 25 23 22 22 27 29 26 23 24 23 20 19 22 22 21 20 20 19 21 21
9 11 12 12 14 15 17 18 18 19 19 19 20 21 21 22 23 23 24 24 23 23 23 24 23 23 26 31 29 22 24 22 23 24 24 25 25 25 22 23 23 21 23
Wind_Direction
332 324 314 308 307 302 297 292 287 282 277 273 271 268 272 275 274 269 267 270 260 255 251 243 241 239 241 228 187 175 184 176 122 109 136 156 166 216 204 231 279 287 296
327 318 313 307 303 300 293 288 285 281 278 274 271 269 267 267 269 269 264 261 257 252 253 249 240 236 228 156 158 159 183 179 143 142 153 170 190 188 196 251 282 284 310
322 316 313 309 306 299 295 296 292 283 276 271 266 262 260 260 260 262 261 259 257 250 255 253 240 211 146 139 137 159 174 158 140 154 155 170 164 182 197 264 325 334 297
319 316 313 312 309 307 301 297 291 286 277 268 259 254 254 253 254 256 256 256 256 256 253 192 140 145 141 135 137 141 141 127 118 110 109 93 53 303 307 323 18 340 348
320 316 314 313 311 307 304 301 302 300 295 270 250 248 248 245 248 250 250 256 187 131 117 112 111 120 123 127 134 125 120 103 89 74 63 27 86 41 336 4 359 16 330
320 319 318 317 316 316 317 319 320 326 341 282 251 247 248 247 249 252 184 136 119 115 107 104 104 109 113 114 110 107 100 97 87 180 105 87 67 27 23 23 339 32 324
326 324 324 327 325 329 337 349 0 12 29 51 78 140 89 112 166 140 132 116 109 104 102 106 103 108 111 113 113 112 111 111 86 97 104 80 81 352 357 335 6 293 270
328 332 333 336 338 356 12 20 26 36 42 55 68 75 81 85 101 114 113 105 96 94 99 103 103 102 102 106 100 94 95 118 116 133 140 117 80 42 40 316 302 298 315
339 335 340 347 358 13 30 32 38 51 57 61 67 72 75 81 89 94 102 96 93 90 96 101 103 103 104 101 96 108 122 122 127 130 116 128 101 73 52 40 27 13 347
342 343 352 6 18 34 50 50 48 62 69 64 68 69 72 76 85 87 94 98 93 92 95 95 93 99 108 122 176 138 138 193 186 198 194 197 157 80 48 36 24 349 327
344 357 12 27 34 48 54 57 60 64 74 74 73 71 72 76 82 88 86 88 92 92 92 97 98 102 103 106 111 113 142 214 238 252 239 152 131 76 36 27 9 2 334
1 20 31 38 43 48 53 57 60 67 73 74 76 75 71 75 87 91 93 94 98 100 102 107 108 102 87 77 65 33 305 315 352 82 79 58 53 19 28 4 11 18 30
24 31 42 45 47 50 53 54 52 60 69 72 73 77 79 76 85 90 91 93 96 101 102 106 94 83 84 84 67 51 45 50 58 61 58 56 35 48 56 38 31 27 30
47 49 48 51 55 53 54 55 62 63 71 74 73 75 76 78 88 84 82 83 86 96 98 106 109 100 84 76 58 54 54 52 54 47 38 53 50 49 44 35 38 20 29
51 47 49 53 59 63 61 62 66 68 71 73 68 79 80 75 73 74 79 85 93 91 70 51 70 67 64 69 66 56 43 43 51 48 40 41 45 34 32 34 26 31 27
50 56 58 58 60 63 66 66 76 80 84 88 88 87 90 91 85 68 53 69 76 77 73 66 63 62 57 57 52 46 46 39 40 49 41 31 29 26 22 28 27 26 9
60 61 62 63 63 66 69 72 75 73 83 86 86 86 83 80 63 67 69 73 75 73 69 63 55 51 54 58 54 53 43 34 37 44 40 27 23 23 25 13 15 25 18
71 74 74 74 72 69 70 71 70 71 67 61 73 72 62 61 66 77 76 73 67 62 58 55 50 48 43 42 56 54 56 42 35 25 27 26 21 21 24 20 39 27 18
79 77 83 89 92 89 82 80 78 81 82 71 59 60 60 64 65 64 65 65 65 64 60 55 49 42 37 32 35 53 55 46 33 23 21 19 27 25 24 22 26 25 17
90 94 92 86 101 125 110 91 78 61 59 55 52 59 66 65 59 54 53 57 56 54 53 52 48 47 38 30 27 34 48 39 31 27 20 22 25 26 24 24 22 17 10
55 65 67 67 61 56 60 69 71 72 66 63 62 68 66 66 62 59 56 49 46 43 45 48 45 40 38 34 27 24 32 31 18 17 25 28 25 27 26 26 19 15 10
44 82 91 88 90 91 95 102 100 92 85 80 74 70 66 64 61 60 60 60 56 51 46 45 42 39 35 33 30 28 21 13 13 26 25 30 27 25 23 22 18 16 12
30 96 109 111 119 123 121 106 82 77 71 69 67 65 60 62 63 63 60 56 54 52 50 46 43 38 36 32 31 26 23 23 21 20 29 25 29 30 27 22 14 9 9
355 52 81 98 91 83 81 81 82 82 78 73 70 68 67 65 64 60 59 57 55 50 46 44 42 40 35 31 27 35 36 43 44 30 28 33 35 31 28 23 16 24 34
97 83 77 83 93 92 85 81 81 80 79 76 76 75 72 69 67 64 63 60 55 52 45 40 39 38 33 37 37 43 45 40 39 34 33 48 47 41 31 29 34 36 41
110 117 123 110 98 90 87 83 79 80 79 76 72 71 68 66 62 59 57 56 54 51 46 40 38 44 45 42 39 49 45 44 43 32 50 54 53 51 41 43 41 41 45